Regional Weather Roundup
Issued by NWS Columbia, SC

Home | Current Version | Previous Version | Text Only | Print | Product List | Glossary On
Versions: 1 2 3 4 5 6 7 8 9 10 11 12 13 14 15 16 17 18 19 20 21 22 23 24 25 26 27 28 29 30 31 32 33 34 35 36 37 38 39 40 41 42 43 44 45 46 47 48 49 50
000
ASUS42 KCAE 230610
RWRCAE
REGIONAL WEATHER ROUNDUP
NATIONAL WEATHER SERVICE COLUMBIA SC
200 AM EDT TUE SEP 23 2014

NOTE: "FAIR" INDICATES FEW OR NO CLOUDS BELOW 12,000 FEET WITH NO
SIGNIFICANT WEATHER AND/OR OBSTRUCTIONS TO VISIBILITY.

NOT ALL STATIONS ARE QUALITY CONTROLLED BY THE NATIONAL
WEATHER SERVICE. USE DATA WITH CAUTION...ESPECIALLY
DEWPOINT OBSERVATIONS.

SCZ001>056-GAZ040-063>065-077-230700-
...UPSTATE SOUTH CAROLINA...

CITY           SKY/WX    TMP DP  RH WIND       PRES   REMARKS
ANDERSON       CLEAR     60  57  89 NE6       30.15S
6HR MIN TEMP:  59; 6HR MAX TEMP:  67;

LIBERTY        FAIR      59  53  79 MISG      30.16S
6HR MIN TEMP:  55; 6HR MAX TEMP:  87;

SPARTANBURG    FAIR      64  54  68 NE5       30.17S
CLEMSON        CLEAR     62  51  67 N5        30.17S
6HR MIN TEMP:  62; 6HR MAX TEMP:  71;

GREENVILLE     MOCLDY    64  52  64 NE9       30.18R
6HR MIN TEMP:  63; 6HR MAX TEMP:  71;

GREENWOOD      MOCLDY    63  58  83 N5        30.16R
6HR MIN TEMP:  61; 6HR MAX TEMP:  68;

GREER          MOCLDY    63  53  70 NE9       30.16S
6HR MIN TEMP:  63; 6HR MAX TEMP:  66;

ROCK HILL      CLOUDY    64  57  78 N9        30.17R
6HR MIN TEMP:  62; 6HR MAX TEMP:  67;

CHESTER        CLOUDY    64  59  82 N8        30.20R


...CENTRAL SOUTH CAROLINA...

CITY           SKY/WX    TMP DP  RH WIND       PRES   REMARKS
COLUMBIA APT   CLOUDY    66  61  84 W3        30.10S
6HR MIN TEMP:  65; 6HR MAX TEMP:  70; 6HR PCP:  0.02;

COLUMBIA OWENS CLOUDY    65  61  87 SW5       30.12R
6HR MIN TEMP:  65; 6HR MAX TEMP:  69; 6HR PCP:  0.05;

DARLINGTON     CLOUDY    64  61  88 N3        30.15R
6HR MIN TEMP:  64; 6HR MAX TEMP:  66; 6HR PCP:  0.03;

FLORENCE       LGT RAIN  65  61  87 NE3       30.13S
6HR MIN TEMP:  65; 6HR MAX TEMP:  69; 6HR PCP:  0.07;

MCENTIRE ANGB  LGT RAIN  64  60  88 E9G23     30.09S
6HR MIN TEMP:  64; 6HR MAX TEMP:  67; 6HR PCP:  0.11;

ORANGEBURG     LGT RAIN  64  60  87 E7        30.09S
6HR MIN TEMP:  64; 6HR MAX TEMP:  65; 6HR PCP:  0.17;

SUMTER SHAW    LGT RAIN  64  61  92 NE8       30.10F
6HR MIN TEMP:  64; 6HR MAX TEMP:  66; 6HR PCP:  0.06;

NEWBERRY       MOCLDY    64  59  82 NW3       30.16R
AIKEN          CLOUDY    64  64 100 NE8       30.14S
BARNWELL       RAIN      64  64 100 NE8       30.10S
MANNING        CLOUDY    64 N/A N/A NE3       30.12F
CAMDEN         LGT RAIN  63  59  88 E6        30.14F
LANCASTER      CLOUDY    64  61  88 NE9       30.14F
WINNSBORO      FAIR      63  61  94 W5        30.13R


...EASTERN AND COASTAL SOUTH CAROLINA...

CITY           SKY/WX    TMP DP  RH WIND       PRES   REMARKS
MYRTLE BEACH   CLOUDY    66  63  88 N9        30.11S
6HR MIN TEMP:  66; 6HR MAX TEMP:  70; 6HR PCP:  0.01;

N MYRTLE BCH   CLOUDY    66  63  90 N7        30.11S
6HR MIN TEMP:  66; 6HR MAX TEMP:  68; 6HR PCP:  0.07;

CONWAY         CLOUDY    64  64 100 CALM      30.13R
MARION         MOCLDY    64  61  88 CALM      30.14R
HARTSVILLE     CLOUDY    64  54  68 CALM      30.15R
FLORENCE       LGT RAIN  65  61  87 NE3       30.13S
6HR MIN TEMP:  65; 6HR MAX TEMP:  69; 6HR PCP:  0.07;

DARLINGTON     CLOUDY    64  61  88 N3        30.15R
6HR MIN TEMP:  64; 6HR MAX TEMP:  66; 6HR PCP:  0.03;

CHARLESTON APT MOCLDY    69  65  86 NE8       30.09F
6HR MIN TEMP:  69; 6HR MAX TEMP:  71; 6HR PCP:  0.03;

MOUNT PLEASANT MOCLDY    66  66 100 N3        30.09F FOG
WALTERBORO     CLOUDY    68 N/A N/A NE8       30.08F
BEAUFORT       CLOUDY    69  61  75 MISG      30.05F
6HR MIN TEMP:  68; 6HR MAX TEMP:  70; 6HR PCP:  0.02;



...EASTERN GEORGIA...

CITY           SKY/WX    TMP DP  RH WIND       PRES   REMARKS
AUGUSTA BUSH F CLOUDY    66  62  87 N6        30.09F
6HR MIN TEMP:  64; 6HR MAX TEMP:  66; 6HR PCP: TRACE;

AUGUSTA DANIEL CLOUDY    68  61  78 N6        30.10F
6HR MIN TEMP:  67; 6HR MAX TEMP:  68;

THOMSON        CLOUDY    65  65 100 CALM      30.14F
6HR MIN TEMP:  63; 6HR MAX TEMP:  67;

WASHINGTON     FAIR      63  63 100 N3        30.12R
CLAXTON        TSTM      68  68 100 NW6       30.07R
SYLVANIA       CLOUDY    69  68  97 N3        30.07S THUNDER
6HR MIN TEMP:  69; 6HR MAX TEMP:  73;

STATESBORO     CLOUDY    66  66 100 NW9       30.07R
6HR MIN TEMP:  66; 6HR MAX TEMP:  69;

SAVANNAH       CLOUDY    68  61  78 NE7       30.05
6HR MIN TEMP:  68; 6HR MAX TEMP:  71; 6HR PCP:  0.05;



...SOUTHERN NORTH CAROLINA...

CITY           SKY/WX    TMP DP  RH WIND       PRES   REMARKS
CHARLOTTE      CLOUDY    63  51  65 N10       30.18R
6HR MIN TEMP:  62; 6HR MAX TEMP:  70;

MONROE         CLOUDY    65  55  70 N8        30.15S
6HR MIN TEMP:  64; 6HR MAX TEMP:  67;

WADESBORO      CLOUDY    65  58  79 NW6       30.16R
6HR MIN TEMP:  64; 6HR MAX TEMP:  68;

ROCKINGHAM     CLOUDY    65  56  72 CALM      30.15R
6HR MIN TEMP:  65; 6HR MAX TEMP:  68;

RUTHERFORDTON  MOCLDY    58  52  81 CALM      30.19F
6HR MIN TEMP:  57; 6HR MAX TEMP:  69;

ASHEVILLE      CLOUDY    54  49  83 CALM      30.24R
6HR MIN TEMP:  53; 6HR MAX TEMP:  63;


$$


USA.gov is the U.S. government's official web portal to all federal, state and local government web resources and services.